Weather History for K4M9 - August, 2013

Change the Weather History Date:

Sunday, August 4, 2013

  Actual Average (KARG) Record (KARG)
Temperature  
Mean Temperature 76 °F -  
Max Temperature 82 °F 86 °F 100 °F (2010)
Min Temperature 71 °F 68 °F 64 °F (2014)
Cooling Degree Days 12    
Growing Degree Days 26 (Base 50)    
Moisture  
Dew Point 71 °F    
Average Humidity 88    
Maximum Humidity 100    
Minimum Humidity 62    
Precipitation  
Precipitation 0.12 in - - ()
Sea Level Pressure  
Sea Level Pressure 30.11 in    
Wind  
Wind Speed 5 mph (NNE)    
Max Wind Speed 9 mph    
Max Gust Speed -    
Visibility 9 miles    
Events Rain    
Averages and records for this station are not official NWS values.
T = Trace of Precipitation, MM = Missing Value Source: NWS Daily Summary

Daily Weather History Graph

Daily Weather History Graph

Search for Another Location

Airport or City:

Trip Planner

Search our weather history database for the weather conditions in past years. The results will help you decide how hot, cold, wet, or windy it might be!

Date:

Astronomy

Aug. 04, 2013 Rise Set
Actual Time 6:11 AM CDT 8:05 PM CDT
Civil Twilight 5:43 AM CDT 8:33 PM CDT
Nautical Twilight 5:09 AM CDT 9:07 PM CDT
Astronomical Twilight 4:32 AM CDT 9:43 PM CDT
Moon 4:13 AM CDT 6:28 PM CDT
Length of Visible Light 14h 49m
Length of Day
13h 53m
Waning Crescent, 4% of the Moon is Illuminated
Aug 4
Waning Crescent
Aug 6
New
Aug 14
First Quarter
Aug 20
Full
Aug 28
Last Quarter

Hourly Weather History & Observations

Time (CDT) Temp. Heat Index Dew Point Humidity Pressure Visibility Wind Dir Wind Speed Gust Speed Precip Events Conditions
12:15 AM 73.4 °F - 73.4 °F 100% 30.10 in 10.0 mi NW 4.6 mph - N/A   Mostly Cloudy
12:35 AM 73.4 °F - 73.4 °F 100% 30.10 in 10.0 mi NW 5.8 mph - N/A   Overcast
12:55 AM 75.2 °F - 75.2 °F 100% 30.10 in 10.0 mi NW 3.5 mph - N/A   Overcast
1:15 AM 73.4 °F - 73.4 °F 100% 30.10 in 10.0 mi Calm Calm - N/A   Overcast
1:35 AM 73.4 °F - 73.4 °F 100% 30.08 in 10.0 mi Calm Calm - N/A   Overcast
1:55 AM 73.4 °F - 73.4 °F 100% 30.08 in 10.0 mi Calm Calm - N/A   Overcast
2:15 AM 73.4 °F - 73.4 °F 100% 30.08 in 10.0 mi WNW 3.5 mph - N/A   Scattered Clouds
2:35 AM 71.6 °F - 71.6 °F 100% 30.07 in 10.0 mi Calm Calm - N/A   Clear
2:55 AM 71.6 °F - 71.6 °F 100% 30.06 in 10.0 mi Calm Calm - N/A   Clear
3:15 AM 71.6 °F - 71.6 °F 100% 30.06 in 10.0 mi Calm Calm - N/A   Clear
3:35 AM 71.6 °F - 71.6 °F 100% 30.07 in 8.0 mi Calm Calm - N/A   Clear
3:55 AM 71.6 °F - 71.6 °F 100% 30.08 in 10.0 mi NNW 3.5 mph - N/A   Clear
4:15 AM 71.6 °F - 71.6 °F 100% 30.09 in 8.0 mi NNW 5.8 mph - N/A   Partly Cloudy
4:35 AM 71.6 °F - 71.6 °F 100% 30.11 in 8.0 mi NNW 4.6 mph - N/A   Scattered Clouds
4:55 AM 71.6 °F - 71.6 °F 100% 30.10 in 10.0 mi NNE 4.6 mph - N/A   Partly Cloudy
5:15 AM 71.6 °F - 71.6 °F 100% 30.11 in 10.0 mi NNE 4.6 mph - N/A   Partly Cloudy
5:35 AM 71.6 °F - 71.6 °F 100% 30.11 in 9.0 mi NE 6.9 mph - N/A   Scattered Clouds
5:55 AM 71.6 °F - 71.6 °F 100% 30.11 in 8.0 mi ENE 5.8 mph - N/A   Partly Cloudy
6:15 AM 71.6 °F - 71.6 °F 100% 30.11 in 9.0 mi NE 5.8 mph - N/A   Clear
6:35 AM 71.6 °F - 71.6 °F 100% 30.12 in 10.0 mi NNE 6.9 mph - N/A   Clear
6:55 AM 71.6 °F - 71.6 °F 100% 30.12 in 8.0 mi NE 6.9 mph - N/A   Mostly Cloudy
7:15 AM 71.6 °F - 71.6 °F 100% 30.13 in 8.0 mi NE 6.9 mph - N/A   Mostly Cloudy
7:35 AM 71.6 °F - 71.6 °F 100% 30.13 in 9.0 mi NE 9.2 mph - N/A   Partly Cloudy
7:55 AM 73.4 °F - 71.6 °F 94% 30.14 in 9.0 mi NE 6.9 mph - N/A   Clear
8:15 AM 73.4 °F - 71.6 °F 94% 30.14 in 10.0 mi NE 5.8 mph - N/A   Clear
8:35 AM 75.2 °F - 69.8 °F 83% 30.15 in 10.0 mi NE 8.1 mph - N/A   Clear
8:55 AM 75.2 °F - 69.8 °F 83% 30.15 in 10.0 mi NE 9.2 mph - N/A   Clear
9:15 AM 77.0 °F - 69.8 °F 78% 30.15 in 10.0 mi NE 9.2 mph - N/A   Clear
9:35 AM 77.0 °F - 69.8 °F 78% 30.14 in 10.0 mi ENE 6.9 mph - N/A   Clear
9:55 AM 78.8 °F - 68.0 °F 69% 30.14 in 10.0 mi NE 6.9 mph - N/A   Clear
10:15 AM 80.6 °F 83.9 °F 69.8 °F 70% 30.14 in 10.0 mi NE 9.2 mph - N/A   Clear
10:35 AM 80.6 °F 83.2 °F 68.0 °F 65% 30.14 in 10.0 mi ENE 9.2 mph - N/A   Clear
10:55 AM 80.6 °F 83.2 °F 68.0 °F 65% 30.15 in 10.0 mi NE 6.9 mph - N/A   Clear
11:15 AM 80.6 °F 83.2 °F 68.0 °F 65% 30.15 in 10.0 mi ENE 4.6 mph - N/A   Clear
11:35 AM 80.6 °F 83.2 °F 68.0 °F 65% 30.15 in 10.0 mi NNE 5.8 mph - N/A   Clear
11:55 AM 80.6 °F 83.2 °F 68.0 °F 65% 30.14 in 10.0 mi NE 5.8 mph - N/A   Clear
12:15 PM 82.4 °F 86.3 °F 69.8 °F 66% 30.14 in 10.0 mi NE 6.9 mph - N/A   Clear
12:35 PM 82.4 °F 86.3 °F 69.8 °F 66% 30.13 in 10.0 mi NE 6.9 mph - N/A Rain Light Rain
12:55 PM 82.4 °F 87.2 °F 71.6 °F 70% 30.12 in 10.0 mi NE 8.1 mph - N/A Rain Light Rain
1:15 PM 82.4 °F 86.3 °F 69.8 °F 66% 30.12 in 10.0 mi NE 3.5 mph - N/A Rain Light Rain
1:35 PM 82.4 °F 85.4 °F 68.0 °F 62% 30.12 in 10.0 mi NNE 3.5 mph - N/A Rain Light Rain
1:55 PM 82.4 °F 85.4 °F 68.0 °F 62% 30.12 in 10.0 mi NE 8.1 mph - 0.01 in Rain Light Rain
2:15 PM 82.4 °F 86.3 °F 69.8 °F 66% 30.11 in 10.0 mi NE 6.9 mph - N/A Rain Light Rain
2:35 PM 82.4 °F 86.3 °F 69.8 °F 66% 30.11 in 10.0 mi NNE 8.1 mph - N/A Rain Light Rain
2:55 PM 80.6 °F 83.2 °F 68.0 °F 65% 30.11 in 10.0 mi NNE 8.1 mph - N/A Rain Light Rain
3:15 PM 80.6 °F 83.2 °F 68.0 °F 65% 30.10 in 10.0 mi NE 8.1 mph - N/A Rain Light Rain
3:35 PM 82.4 °F 86.3 °F 69.8 °F 66% 30.09 in 10.0 mi NE 9.2 mph - N/A   Clear
3:55 PM 82.4 °F 86.3 °F 69.8 °F 66% 30.10 in 10.0 mi NE 8.1 mph - N/A   Clear
4:15 PM 80.6 °F 84.6 °F 71.6 °F 74% 30.10 in 10.0 mi NNE 6.9 mph - N/A   Clear
4:35 PM 80.6 °F 84.6 °F 71.6 °F 74% 30.10 in 10.0 mi North 6.9 mph - N/A   Clear
4:55 PM 78.8 °F - 71.6 °F 78% 30.10 in 10.0 mi North 5.8 mph - N/A   Mostly Cloudy
5:15 PM 77.0 °F - 71.6 °F 83% 30.10 in 5.0 mi North 5.8 mph - N/A Rain Light Rain
5:35 PM 75.2 °F - 73.4 °F 94% 30.10 in 2.5 mi North 4.6 mph - 0.05 in Rain Rain
5:55 PM 75.2 °F - 73.4 °F 94% 30.09 in 5.0 mi North 4.6 mph - 0.08 in Rain Light Rain
6:15 PM 75.2 °F - 73.4 °F 94% 30.09 in 7.0 mi NNE 3.5 mph - N/A Rain Light Rain
6:35 PM 75.2 °F - 73.4 °F 94% 30.09 in 8.0 mi North 4.6 mph - N/A Rain Light Rain
6:55 PM 75.2 °F - 73.4 °F 94% 30.09 in 6.0 mi NNW 3.5 mph - 0.01 in Rain Light Rain
7:15 PM 75.2 °F - 73.4 °F 94% 30.09 in 7.0 mi NNW 4.6 mph - N/A Rain Light Rain
7:35 PM 73.4 °F - 73.4 °F 100% 30.10 in 5.0 mi NW 3.5 mph - N/A Rain Light Rain
7:55 PM 73.4 °F - 73.4 °F 100% 30.10 in 5.0 mi NW 4.6 mph - 0.01 in Rain Light Rain
8:15 PM 73.4 °F - 73.4 °F 100% 30.10 in 5.0 mi Calm Calm - 0.01 in Rain Light Rain
8:35 PM 73.4 °F - 73.4 °F 100% 30.09 in 7.0 mi Calm Calm - 0.01 in Rain Light Rain
8:55 PM 73.4 °F - 73.4 °F 100% 30.08 in 7.0 mi East 4.6 mph - 0.01 in   Clear
9:15 PM 73.4 °F - 73.4 °F 100% 30.08 in 7.0 mi ENE 4.6 mph - N/A   Clear
9:35 PM 73.4 °F - 73.4 °F 100% 30.08 in 9.0 mi ENE 5.8 mph - N/A   Clear
9:55 PM 73.4 °F - 73.4 °F 100% 30.08 in 8.0 mi East 6.9 mph - N/A   Clear
10:15 PM 73.4 °F - 73.4 °F 100% 30.08 in 10.0 mi NE 6.9 mph - N/A   Clear
10:35 PM 73.4 °F - 73.4 °F 100% 30.08 in 10.0 mi ENE 5.8 mph - N/A   Partly Cloudy
10:55 PM 73.4 °F - 71.6 °F 94% 30.09 in 10.0 mi East 3.5 mph - N/A   Clear
11:15 PM 73.4 °F - 71.6 °F 94% 30.08 in 10.0 mi NE 3.5 mph - N/A   Clear
11:35 PM 73.4 °F - 71.6 °F 94% 30.09 in 10.0 mi Calm Calm - N/A   Clear
11:55 PM 71.6 °F - 71.6 °F 100% 30.09 in 9.0 mi NW 3.5 mph - N/A   Partly Cloudy